Weather History for Oelwein, IA

Change the Weather History Date:

Wednesday, December 5, 2012

  Actual Average Record
Temperature  
Mean Temperature 31 °F -  
Max Temperature 41 °F 34 °F 75 °F (1997)
Min Temperature 21 °F 18 °F -11 °F (2005)
Degree Days  
Heating Degree Days 34    
Moisture  
Dew Point 20 °F    
Average Humidity 64    
Maximum Humidity 86    
Minimum Humidity 39    
Precipitation  
Precipitation 0.00 in - - ()
Sea Level Pressure  
Sea Level Pressure 30.25 in    
Wind  
Wind Speed 11 mph (ESE)    
Max Wind Speed 22 mph    
Max Gust Speed 25 mph    
Visibility 10 miles    
Events      
Averages and records for this station are not official NWS values.
T = Trace of Precipitation, MM = Missing Value Source: NWS Daily Summary

Daily Weather History Graph

Daily Weather History Graph

Search for Another Location

Airport:

Trip Planner

Search our weather history database for the weather conditions in past years. The results will help you decide how hot, cold, wet, or windy it might be!

Date:

Astronomy

Dec. 05, 2012 Rise Set
Actual Time 7:23 AM CST 4:34 PM CST
Civil Twilight 6:51 AM CST 5:06 PM CST
Nautical Twilight 6:15 AM CST 5:41 PM CST
Astronomical Twilight 5:41 AM CST 6:15 PM CST
Moon 11:31 PM CST (12/5) 11:40 AM CST (12/5)
Length of Visible Light 10h 14m
Length of Day
9h 11m
Waning Gibbous, 59% of the Moon is Illuminated
Dec 5
Waning Gibbous
Dec 6
Last Quarter
Dec 13
New
Dec 19
First Quarter
Dec 28
Full

Hourly Weather History & Observations

Time (CST) Temp. Windchill Dew Point Humidity Pressure Visibility Wind Dir Wind Speed Gust Speed Precip Events Conditions
12:15 AM 26.6 °F 18.2 °F 19.4 °F 74% 30.37 in 10.0 mi North 8.1 mph - N/A   Clear
12:35 AM 24.8 °F 16.1 °F 19.4 °F 80% 30.36 in 10.0 mi North 8.1 mph - N/A   Clear
12:55 AM 26.6 °F 19.1 °F 19.4 °F 74% 30.36 in 10.0 mi North 6.9 mph - N/A   Clear
1:15 AM 24.8 °F 19.1 °F 19.4 °F 80% 30.37 in 10.0 mi North 4.6 mph - N/A   Clear
1:55 AM 24.8 °F 17.9 °F 19.4 °F 80% 30.38 in 10.0 mi North 5.8 mph - N/A   Clear
2:15 AM 23.0 °F 17.0 °F 19.4 °F 86% 30.38 in 10.0 mi North 4.6 mph - N/A   Clear
2:35 AM 23.0 °F 15.8 °F 17.6 °F 80% 30.38 in 10.0 mi North 5.8 mph - N/A   Clear
2:55 AM 21.2 °F 13.6 °F 17.6 °F 86% 30.38 in 10.0 mi NNE 5.8 mph - N/A   Clear
3:15 AM 21.2 °F 12.6 °F 17.6 °F 86% 30.38 in 10.0 mi NE 6.9 mph - N/A   Clear
3:35 AM 21.2 °F 12.6 °F 17.6 °F 86% 30.37 in 10.0 mi NE 6.9 mph - N/A   Clear
3:55 AM 21.2 °F 12.6 °F 17.6 °F 86% 30.37 in 10.0 mi NE 6.9 mph - N/A   Clear
4:15 AM 23.0 °F 15.8 °F 17.6 °F 80% 30.36 in 10.0 mi ENE 5.8 mph - N/A   Clear
4:35 AM 23.0 °F 15.8 °F 17.6 °F 80% 30.38 in 10.0 mi ENE 5.8 mph - N/A   Clear
4:55 AM 23.0 °F 15.8 °F 17.6 °F 80% 30.38 in 10.0 mi ENE 5.8 mph - N/A   Clear
5:15 AM 21.2 °F 13.6 °F 17.6 °F 86% 30.38 in 10.0 mi East 5.8 mph - N/A   Clear
5:35 AM 21.2 °F 12.6 °F 17.6 °F 86% 30.39 in 10.0 mi ENE 6.9 mph - N/A   Clear
5:55 AM 21.2 °F 12.6 °F 17.6 °F 86% 30.38 in 10.0 mi ENE 6.9 mph - N/A   Clear
6:15 AM 21.2 °F 13.6 °F 15.8 °F 80% 30.38 in 10.0 mi ENE 5.8 mph - N/A   Clear
6:35 AM 23.0 °F 15.8 °F 17.6 °F 80% 30.38 in 10.0 mi East 5.8 mph - N/A   Clear
6:55 AM 23.0 °F 13.9 °F 15.8 °F 74% 30.38 in 10.0 mi East 8.1 mph - N/A   Clear
8:35 AM 28.4 °F 18.5 °F 17.6 °F 64% 30.36 in 10.0 mi East 11.5 mph 17.3 mph N/A   Clear
8:55 AM 28.4 °F 18.5 °F 17.6 °F 64% 30.35 in 10.0 mi East 11.5 mph - N/A   Clear
9:15 AM 28.4 °F 17.5 °F 17.6 °F 64% 30.36 in 10.0 mi East 13.8 mph - N/A   Clear
9:35 AM 30.2 °F 19.8 °F 17.6 °F 60% 30.36 in 10.0 mi ESE 13.8 mph - N/A   Clear
9:55 AM 32.0 °F 22.1 °F 17.6 °F 55% 30.37 in 10.0 mi ESE 13.8 mph - N/A   Clear
10:15 AM 32.0 °F 23.0 °F 19.4 °F 60% 30.37 in 10.0 mi SE 11.5 mph - N/A   Clear
10:35 AM 32.0 °F 22.1 °F 19.4 °F 60% 30.37 in 10.0 mi SE 13.8 mph - N/A   Clear
10:55 AM 32.0 °F 22.1 °F 19.4 °F 60% 30.35 in 10.0 mi ESE 13.8 mph - N/A   Clear
11:15 AM 33.8 °F 24.3 °F 17.6 °F 52% 30.34 in 10.0 mi SE 13.8 mph - N/A   Clear
11:35 AM 35.6 °F 25.5 °F 19.4 °F 52% 30.31 in 10.0 mi SE 17.3 mph - N/A   Clear
11:55 AM 35.6 °F 26.2 °F 17.6 °F 48% 30.31 in 10.0 mi SSE 15.0 mph 20.7 mph N/A   Clear
12:15 PM 35.6 °F 26.6 °F 19.4 °F 52% 30.31 in 10.0 mi SE 13.8 mph - N/A   Clear
12:35 PM 37.4 °F 28.9 °F 19.4 °F 48% 30.29 in 10.0 mi SE 13.8 mph - N/A   Clear
12:55 PM 37.4 °F 28.5 °F 17.6 °F 45% 30.27 in 10.0 mi SE 15.0 mph 19.6 mph N/A   Clear
1:15 PM 39.2 °F 30.8 °F 19.4 °F 45% 30.26 in 10.0 mi SE 15.0 mph - N/A   Clear
1:35 PM 39.2 °F 29.8 °F 17.6 °F 42% 30.25 in 10.0 mi SSE 18.4 mph - N/A   Clear
1:55 PM 39.2 °F 30.5 °F 17.6 °F 42% 30.25 in 10.0 mi SSE 16.1 mph 21.9 mph N/A   Clear
2:15 PM 41.0 °F 32.8 °F 17.6 °F 39% 30.23 in 10.0 mi SE 16.1 mph - N/A   Clear
2:35 PM 41.0 °F 32.8 °F 19.4 °F 42% 30.23 in 10.0 mi SE 16.1 mph - N/A   Clear
2:55 PM 39.2 °F 30.2 °F 19.4 °F 45% 30.22 in 10.0 mi SE 17.3 mph - N/A   Clear
3:15 PM 37.4 °F 28.2 °F 19.4 °F 48% 30.21 in 10.0 mi SE 16.1 mph - N/A   Clear
3:35 PM 37.4 °F 27.8 °F 19.4 °F 48% 30.20 in 10.0 mi SE 17.3 mph - N/A   Clear
3:55 PM 37.4 °F 28.9 °F 19.4 °F 48% 30.20 in 10.0 mi SE 13.8 mph - N/A   Clear
4:15 PM 37.4 °F 28.9 °F 19.4 °F 48% 30.19 in 10.0 mi SE 13.8 mph - N/A   Clear
4:35 PM 35.6 °F 26.2 °F 19.4 °F 52% 30.18 in 10.0 mi SE 15.0 mph - N/A   Clear
4:55 PM 35.6 °F 26.2 °F 19.4 °F 52% 30.18 in 10.0 mi SE 15.0 mph 21.9 mph N/A   Clear
5:15 PM 35.6 °F 25.9 °F 21.2 °F 56% 30.18 in 10.0 mi SE 16.1 mph - N/A   Clear
5:35 PM 33.8 °F 22.8 °F 21.2 °F 60% 30.16 in 10.0 mi SE 18.4 mph - N/A   Clear
5:55 PM 33.8 °F 22.8 °F 21.2 °F 60% 30.16 in 10.0 mi SE 18.4 mph 24.2 mph N/A   Clear
6:15 PM 33.8 °F 22.8 °F 21.2 °F 60% 30.15 in 10.0 mi SE 18.4 mph 24.2 mph N/A   Clear
6:35 PM 33.8 °F 22.5 °F 21.2 °F 60% 30.14 in 10.0 mi SE 19.6 mph 25.3 mph N/A   Clear
6:55 PM 33.8 °F 22.8 °F 21.2 °F 60% 30.14 in 10.0 mi SE 18.4 mph - N/A   Clear
7:15 PM 33.8 °F 22.5 °F 21.2 °F 60% 30.12 in 10.0 mi SE 19.6 mph 24.2 mph N/A   Clear
7:35 PM 33.8 °F 22.8 °F 21.2 °F 60% 30.12 in 10.0 mi SE 18.4 mph - N/A   Clear
7:55 PM 33.8 °F 23.2 °F 21.2 °F 60% 30.11 in 10.0 mi SE 17.3 mph - N/A   Clear
8:15 PM 33.8 °F 22.2 °F 21.2 °F 60% 30.09 in 10.0 mi SE 20.7 mph - N/A   Clear
8:35 PM 33.8 °F 22.8 °F 21.2 °F 60% 30.09 in 10.0 mi SE 18.4 mph - N/A   Clear
8:55 PM 35.6 °F 25.5 °F 21.2 °F 56% 30.09 in 10.0 mi SE 17.3 mph - N/A   Clear
9:15 PM 35.6 °F 25.9 °F 23.0 °F 60% 30.09 in 10.0 mi SE 16.1 mph - N/A   Clear
9:35 PM 35.6 °F 25.5 °F 24.8 °F 65% 30.08 in 10.0 mi SSE 17.3 mph - N/A   Clear
9:55 PM 37.4 °F 27.5 °F 26.6 °F 65% 30.07 in 10.0 mi SSE 18.4 mph 24.2 mph N/A   Clear
10:15 PM 37.4 °F 26.6 °F 26.6 °F 65% 30.06 in 10.0 mi SE 21.9 mph - N/A   Clear
10:35 PM 37.4 °F 27.8 °F 26.6 °F 65% 30.06 in 10.0 mi SSE 17.3 mph 24.2 mph N/A   Clear
10:55 PM 37.4 °F 27.8 °F 28.4 °F 70% 30.06 in 10.0 mi SSE 17.3 mph - N/A   Clear
11:15 PM 37.4 °F 28.5 °F 28.4 °F 70% 30.05 in 10.0 mi SE 15.0 mph - N/A   Clear
11:35 PM 37.4 °F 28.5 °F 28.4 °F 70% 30.06 in 10.0 mi SSE 15.0 mph - N/A   Clear
11:55 PM 37.4 °F 28.2 °F 30.2 °F 75% 30.04 in 10.0 mi SE 16.1 mph - N/A   Clear